ELEKTRO-L 3

Last updated on Sat Aug 15 2026 00:02:49 GMT+0000 (Coordinated Universal Time)

1 44903U 19095A 26225.15733008 -.00000114 00000+0 00000+0 0 9993 2 44903 0.3989 82.5829 0001352 43.7426 327.8757 1.00270982 24286
UTC large
Height (km)
Speed (km/s)
/
Latitude / Longitude
Inclination (degrees)
Orbital Period (minutes)
Azimuth
Elevation
Range (km)
Doppler Factor

Next 0 passes for location: London (51.5072 / 0.1276)

No passes found over London.
ELEKTRO-L 3